| time (UTC) | temp F | wind direction | speed MPH | gust MPH | rain 1hr in | rain 24hr in | rain mn in | humidity % | barometer mb |
| 20260904144044 | 78 | 304 | 0.0 | 0.0 | 0.00 | 0.00 | 0.06 | 71 | 1008.3 |
| 20260904143547 | 77 | 294 | 0.0 | 0.0 | 0.00 | 0.00 | 0.06 | 72 | 1008.3 |
| 20260904143051 | 77 | 298 | 0.0 | 0.0 | 0.00 | 0.00 | 0.06 | 74 | 1008.3 |
| 20260904142554 | 77 | 313 | 0.0 | 0.0 | 0.00 | 0.00 | 0.06 | 75 | 1008.1 |
| 20260904142057 | 76 | 306 | 0.0 | 0.0 | 0.00 | 0.00 | 0.06 | 74 | 1008.1 |
| 20260904141503 | 76 | 306 | 0.0 | 0.0 | 0.00 | 0.00 | 0.06 | 75 | 1008.1 |
| 20260904141005 | 76 | 296 | 0.0 | 0.0 | 0.00 | 0.00 | 0.06 | 76 | 1007.9 |
| 20260904140558 | 76 | 295 | 0.0 | 0.0 | 0.00 | 0.00 | 0.06 | 78 | 1007.9 |
| 20260904135606 | 75 | 289 | 0.0 | 0.0 | 0.00 | 0.00 | 0.06 | 79 | 1008.0 |
| 20260904135002 | 75 | 284 | 0.0 | 0.0 | 0.00 | 0.00 | 0.06 | 80 | 1008.0 |
| 20260904134504 | 75 | 301 | 0.0 | 0.0 | 0.00 | 0.00 | 0.06 | 80 | 1008.0 |
| 20260904134058 | 74 | 301 | 0.0 | 0.0 | 0.00 | 0.00 | 0.06 | 80 | 1008.2 |
| 20260904133600 | 74 | 311 | 0.0 | 0.0 | 0.00 | 0.00 | 0.06 | 81 | 1008.2 |
| 20260904133104 | 74 | 282 | 0.0 | 0.0 | 0.00 | 0.00 | 0.06 | 81 | 1008.2 |
| 20260904132501 | 74 | 315 | 0.0 | 0.0 | 0.00 | 0.00 | 0.05 | 83 | 1008.2 |
| 20260904132053 | 73 | 311 | 0.0 | 0.0 | 0.00 | 0.00 | 0.05 | 83 | 1008.2 |
| 20260904131556 | 73 | 299 | 0.0 | 0.0 | 0.00 | 0.00 | 0.05 | 83 | 1008.2 |
| 20260904131045 | 73 | 328 | 0.0 | 0.0 | 0.00 | 0.00 | 0.05 | 83 | 1008.2 |
| 20260904130549 | 73 | 296 | 0.0 | 0.0 | 0.00 | 0.00 | 0.05 | 84 | 1008.2 |
| 20260904130100 | 73 | 298 | 0.0 | 0.0 | 0.00 | 0.00 | 0.05 | 85 | 1008.2 |
| 20260904125603 | 72 | 298 | 0.0 | 0.0 | 0.00 | 0.00 | 0.05 | 86 | 1008.4 |
| 20260904125106 | 72 | 306 | 0.0 | 0.0 | 0.00 | 0.00 | 0.05 | 87 | 1008.4 |
| 20260904124503 | 72 | 308 | 0.0 | 0.0 | 0.00 | 0.00 | 0.05 | 88 | 1008.4 |
| 20260904124055 | 71 | 294 | 0.0 | 0.0 | 0.00 | 0.00 | 0.05 | 88 | 1008.5 |
| 20260904123559 | 71 | 294 | 0.0 | 0.0 | 0.00 | 0.00 | 0.05 | 88 | 1008.5 |
| 20260904123106 | 71 | 320 | 0.0 | 0.0 | 0.00 | 0.00 | 0.05 | 89 | 1008.5 |
| 20260904122505 | 71 | 320 | 0.0 | 0.0 | 0.00 | 0.00 | 0.05 | 90 | 1008.4 |
| 20260904122058 | 71 | 320 | 0.0 | 0.0 | 0.00 | 0.00 | 0.05 | 90 | 1008.4 |
| 20260904121607 | 71 | 320 | 0.0 | 0.0 | 0.00 | 0.00 | 0.05 | 90 | 1008.4 |
| 20260904121004 | 70 | 320 | 0.0 | 0.0 | 0.00 | 0.00 | 0.05 | 91 | 1008.2 |
| 20260904120559 | 70 | 320 | 0.0 | 0.0 | 0.00 | 0.00 | 0.05 | 91 | 1008.2 |
| 20260904120103 | 70 | 320 | 0.0 | 0.0 | 0.00 | 0.00 | 0.05 | 91 | 1008.2 |
| 20260904115605 | 70 | 320 | 0.0 | 0.0 | 0.00 | 0.00 | 0.05 | 91 | 1008.2 |
| 20260904115002 | 70 | 320 | 0.0 | 0.0 | 0.00 | 0.00 | 0.05 | 91 | 1008.2 |
| 20260904114557 | 70 | 320 | 0.0 | 0.0 | 0.00 | 0.00 | 0.05 | 91 | 1008.2 |
| 20260904114059 | 70 | 320 | 0.0 | 0.0 | 0.00 | 0.00 | 0.05 | 91 | 1008.3 |
| 20260904113602 | 70 | 320 | 0.0 | 0.0 | 0.00 | 0.00 | 0.05 | 92 | 1008.3 |
| 20260904113108 | 70 | 320 | 0.0 | 0.0 | 0.00 | 0.00 | 0.05 | 92 | 1008.3 |
| 20260904112555 | 70 | 320 | 0.0 | 0.0 | 0.00 | 0.00 | 0.05 | 92 | 1008.1 |
| 20260904112057 | 70 | 320 | 0.0 | 0.0 | 0.00 | 0.00 | 0.04 | 92 | 1008.1 |
| 20260904111606 | 70 | 320 | 0.0 | 0.0 | 0.00 | 0.00 | 0.04 | 92 | 1008.1 |
| 20260904111106 | 70 | 320 | 0.0 | 0.0 | 0.00 | 0.00 | 0.04 | 92 | 1007.8 |
| 20260904110608 | 70 | 320 | 0.0 | 0.0 | 0.00 | 0.00 | 0.04 | 93 | 1007.8 |
| 20260904110055 | 70 | 320 | 0.0 | 0.0 | 0.00 | 0.00 | 0.04 | 93 | 1007.8 |
| 20260904105559 | 70 | 320 | 0.0 | 0.0 | 0.00 | 0.00 | 0.04 | 93 | 1007.6 |
| 20260904105059 | 70 | 320 | 0.0 | 0.0 | 0.00 | 0.00 | 0.04 | 94 | 1007.6 |
| 20260904104607 | 70 | 320 | 0.0 | 0.0 | 0.00 | 0.00 | 0.04 | 95 | 1007.6 |
| 20260904104107 | 70 | 320 | 0.0 | 0.0 | 0.00 | 0.00 | 0.04 | 95 | 1007.3 |
| 20260904103554 | 70 | 320 | 0.0 | 0.0 | 0.00 | 0.00 | 0.04 | 96 | 1007.3 |
| 20260904103109 | 70 | 320 | 0.0 | 0.0 | 0.00 | 0.00 | 0.04 | 96 | 1007.3 |
| 20260904102600 | 70 | 320 | 0.0 | 0.0 | 0.00 | 0.00 | 0.04 | 96 | 1007.1 |
| 20260904102103 | 70 | 320 | 0.0 | 0.0 | 0.00 | 0.00 | 0.04 | 97 | 1007.1 |
| 20260904101606 | 70 | 320 | 0.0 | 0.0 | 0.00 | 0.00 | 0.04 | 97 | 1007.1 |
| 20260904101003 | 70 | 320 | 0.0 | 0.0 | 0.00 | 0.00 | 0.04 | 97 | 1007.2 |
| 20260904100510 | 70 | 320 | 0.0 | 0.0 | 0.00 | 0.00 | 0.04 | 97 | 1007.2 |
| 20260904100101 | 70 | 320 | 0.0 | 0.0 | 0.00 | 0.00 | 0.04 | 97 | 1007.2 |
| 20260904095603 | 70 | 320 | 0.0 | 0.0 | 0.00 | 0.00 | 0.04 | 97 | 1007.3 |
| 20260904095109 | 70 | 320 | 0.0 | 0.0 | 0.00 | 0.00 | 0.03 | 98 | 1007.3 |
| 20260904094503 | 70 | 320 | 0.0 | 0.0 | 0.00 | 0.00 | 0.03 | 98 | 1007.3 |
| 20260904094006 | 70 | 320 | 0.0 | 0.0 | 0.00 | 0.00 | 0.03 | 98 | 1007.3 |
| 20260904093600 | 71 | 320 | 0.0 | 0.0 | 0.00 | 0.00 | 0.03 | 98 | 1007.3 |
| 20260904093053 | 71 | 320 | 0.0 | 0.0 | 0.00 | 0.00 | 0.03 | 98 | 1007.3 |
| 20260904092540 | 71 | 320 | 0.0 | 0.0 | 0.00 | 0.00 | 0.03 | 98 | 1007.6 |
| 20260904092050 | 71 | 320 | 0.0 | 0.0 | 0.00 | 0.00 | 0.03 | 98 | 1007.6 |
| 20260904091608 | 71 | 320 | 0.0 | 0.0 | 0.00 | 0.00 | 0.03 | 98 | 1007.6 |
| 20260904091106 | 71 | 320 | 0.0 | 0.0 | 0.00 | 0.00 | 0.03 | 98 | 1007.8 |
| 20260904090555 | 71 | 320 | 0.0 | 0.0 | 0.00 | 0.00 | 0.03 | 98 | 1007.8 |
| 20260904090043 | 71 | 320 | 0.0 | 0.0 | 0.00 | 0.00 | 0.03 | 98 | 1007.8 |
| 20260904085546 | 71 | 320 | 0.0 | 0.0 | 0.00 | 0.00 | 0.03 | 98 | 1007.7 |
| 20260904085049 | 71 | 320 | 0.0 | 0.0 | 0.00 | 0.00 | 0.03 | 98 | 1007.7 |
| 20260904084605 | 71 | 320 | 0.0 | 0.0 | 0.00 | 0.00 | 0.03 | 98 | 1007.7 |
| 20260904084104 | 72 | 320 | 0.0 | 0.0 | 0.00 | 0.00 | 0.03 | 98 | 1007.7 |
| 20260904083502 | 72 | 320 | 0.0 | 0.0 | 0.00 | 0.00 | 0.03 | 98 | 1007.7 |
| 20260904083109 | 72 | 320 | 0.0 | 0.0 | 0.00 | 0.00 | 0.03 | 98 | 1007.7 |
| 20260904082559 | 72 | 320 | 0.0 | 0.0 | 0.00 | 0.00 | 0.03 | 98 | 1007.8 |
| 20260904082101 | 72 | 320 | 0.0 | 0.0 | 0.00 | 0.00 | 0.03 | 98 | 1007.8 |
| 20260904081604 | 72 | 320 | 0.0 | 0.0 | 0.00 | 0.00 | 0.03 | 98 | 1007.8 |
| 20260904081006 | 72 | 320 | 0.0 | 0.0 | 0.00 | 0.00 | 0.03 | 98 | 1007.9 |
| 20260904080601 | 73 | 320 | 0.0 | 0.0 | 0.00 | 0.00 | 0.03 | 98 | 1007.9 |
| 20260904080049 | 73 | 320 | 0.0 | 0.0 | 0.00 | 0.00 | 0.03 | 98 | 1007.9 |
| 20260904075552 | 73 | 320 | 0.0 | 0.0 | 0.00 | 0.00 | 0.03 | 98 | 1007.9 |
| 20260904075054 | 73 | 320 | 0.0 | 0.0 | 0.00 | 0.00 | 0.03 | 98 | 1007.9 |
| 20260904074601 | 73 | 320 | 0.0 | 0.0 | 0.00 | 0.00 | 0.03 | 98 | 1007.9 |
| 20260904074045 | 73 | 320 | 0.0 | 0.0 | 0.00 | 0.00 | 0.02 | 98 | 1007.7 |
| 20260904073550 | 73 | 320 | 0.0 | 0.0 | 0.00 | 0.00 | 0.02 | 98 | 1007.7 |
| 20260904073053 | 73 | 320 | 0.0 | 0.0 | 0.00 | 0.00 | 0.02 | 98 | 1007.7 |
| 20260904072559 | 73 | 320 | 0.0 | 0.0 | 0.00 | 0.00 | 0.02 | 98 | 1007.6 |
| 20260904072101 | 73 | 320 | 0.0 | 0.0 | 0.00 | 0.00 | 0.02 | 98 | 1007.6 |
| 20260904071605 | 73 | 320 | 0.0 | 0.0 | 0.00 | 0.00 | 0.02 | 98 | 1007.6 |
| 20260904071002 | 73 | 320 | 0.0 | 0.0 | 0.00 | 0.00 | 0.02 | 98 | 1007.1 |
| 20260904070506 | 73 | 320 | 0.0 | 0.0 | 0.00 | 0.00 | 0.02 | 98 | 1007.1 |
| 20260904070011 | 73 | 320 | 0.0 | 0.0 | 0.00 | 0.00 | 0.02 | 98 | 1007.1 |
| 20260904065514 | 73 | 320 | 0.0 | 0.0 | 0.00 | 0.00 | 0.02 | 98 | 1006.8 |
| 20260904065106 | 73 | 320 | 0.0 | 0.0 | 0.00 | 0.00 | 0.02 | 98 | 1006.8 |
| 20260904064507 | 73 | 320 | 0.0 | 0.0 | 0.00 | 0.00 | 0.02 | 98 | 1006.8 |
| 20260904064005 | 73 | 320 | 0.0 | 0.0 | 0.00 | 0.00 | 0.02 | 98 | 1006.6 |
| 20260904063511 | 73 | 320 | 0.0 | 0.0 | 0.00 | 0.00 | 0.02 | 98 | 1006.6 |
| 20260904063111 | 73 | 320 | 0.0 | 0.0 | 0.00 | 0.00 | 0.02 | 98 | 1006.6 |
| 20260904062552 | 73 | 320 | 0.0 | 0.0 | 0.00 | 0.00 | 0.02 | 98 | 1006.7 |
| 20260904062100 | 73 | 320 | 0.0 | 0.0 | 0.00 | 0.00 | 0.02 | 98 | 1006.7 |
| 20260904061555 | 73 | 320 | 0.0 | 0.0 | 0.00 | 0.00 | 0.01 | 98 | 1006.7 |
| 20260904061059 | 73 | 320 | 0.0 | 0.0 | 0.00 | 0.00 | 0.01 | 98 | 1006.9 |
| 20260904060607 | 73 | 320 | 0.0 | 0.0 | 0.00 | 0.00 | 0.01 | 98 | 1006.9 |
| 20260904060009 | 73 | 320 | 0.0 | 0.0 | 0.00 | 0.00 | 0.01 | 97 | 1006.9 |
| 20260904055558 | 73 | 320 | 0.0 | 0.0 | 0.00 | 0.00 | 0.01 | 97 | 1007.0 |
| 20260904055101 | 73 | 320 | 0.0 | 0.0 | 0.00 | 0.00 | 0.01 | 97 | 1007.0 |
| 20260904054604 | 73 | 320 | 0.0 | 0.0 | 0.00 | 0.00 | 0.01 | 97 | 1007.0 |
| 20260904054001 | 73 | 320 | 0.0 | 0.0 | 0.00 | 0.00 | 0.01 | 97 | 1007.4 |
| 20260904053553 | 73 | 320 | 0.0 | 0.0 | 0.00 | 0.00 | 0.01 | 97 | 1007.4 |
| 20260904053100 | 73 | 320 | 0.0 | 0.0 | 0.00 | 0.00 | 0.01 | 97 | 1007.4 |
| 20260904052604 | 73 | 320 | 0.0 | 0.0 | 0.00 | 0.00 | 0.01 | 97 | 1007.1 |
| 20260904052001 | 73 | 320 | 0.0 | 0.0 | 0.00 | 0.00 | 0.01 | 97 | 1007.1 |
| 20260904051601 | 73 | 320 | 0.0 | 0.0 | 0.00 | 0.00 | 0.01 | 97 | 1007.1 |
| 20260904051058 | 73 | 320 | 0.0 | 0.0 | 0.00 | 0.00 | 0.01 | 96 | 1007.4 |
| 20260904050601 | 73 | 320 | 0.0 | 0.0 | 0.00 | 0.00 | 0.01 | 96 | 1007.4 |
| 20260904050004 | 73 | 320 | 0.0 | 0.0 | 0.00 | 0.00 | 0.01 | 96 | 1007.4 |
| 20260904045505 | 73 | 320 | 0.0 | 0.0 | 0.00 | 0.00 | 0.01 | 96 | 1007.2 |
| 20260904045008 | 73 | 320 | 0.0 | 0.0 | 0.00 | 0.00 | 0.01 | 96 | 1007.2 |
| 20260904044512 | 73 | 320 | 0.0 | 0.0 | 0.00 | 0.00 | 0.01 | 96 | 1007.2 |
| 20260904044107 | 73 | 320 | 0.0 | 0.0 | 0.00 | 0.00 | 0.01 | 96 | 1007.2 |
| 20260904043508 | 73 | 320 | 0.0 | 0.0 | 0.00 | 0.00 | 0.01 | 96 | 1007.2 |
| 20260904043010 | 73 | 320 | 0.0 | 0.0 | 0.00 | 0.00 | 0.01 | 95 | 1007.2 |
| 20260904042604 | 73 | 320 | 0.0 | 0.0 | 0.00 | 0.00 | 0.00 | 95 | 1007.5 |
| 20260904042108 | 73 | 320 | 0.0 | 0.0 | 0.00 | 0.00 | 0.00 | 95 | 1007.5 |
| 20260904041502 | 74 | 320 | 0.0 | 0.0 | 0.00 | 0.00 | 0.00 | 95 | 1007.5 |
| 20260904041006 | 74 | 320 | 0.0 | 0.0 | 0.00 | 0.00 | 0.00 | 94 | 1008.2 |
| 20260904040508 | 74 | 320 | 0.0 | 0.0 | 0.00 | 0.00 | 0.00 | 94 | 1008.2 |
| 20260904040111 | 74 | 320 | 0.0 | 0.0 | 0.00 | 0.00 | 0.00 | 94 | 1008.2 |
| 20260904035606 | 74 | 320 | 0.0 | 0.0 | 0.00 | 0.00 | 0.15 | 93 | 1009.4 |
| 20260904035003 | 74 | 320 | 0.0 | 0.0 | 0.00 | 0.00 | 0.15 | 93 | 1009.4 |
| 20260904034505 | 74 | 320 | 0.0 | 0.0 | 0.00 | 0.00 | 0.15 | 92 | 1009.4 |
| 20260904034008 | 75 | 288 | 0.0 | 0.0 | 0.00 | 0.00 | 0.15 | 93 | 1008.4 |
| 20260904033605 | 75 | 294 | 0.0 | 0.0 | 0.00 | 0.00 | 0.15 | 93 | 1008.4 |
| 20260904033002 | 75 | 288 | 0.0 | 0.0 | 0.00 | 0.00 | 0.15 | 92 | 1008.4 |
| 20260904032508 | 75 | 7 | 0.0 | 0.0 | 0.00 | 0.00 | 0.15 | 92 | 1008.4 |
| 20260904032100 | 75 | 7 | 0.0 | 0.0 | 0.00 | 0.00 | 0.14 | 92 | 1008.4 |
| 20260904031603 | 75 | 7 | 0.0 | 0.0 | 0.00 | 0.00 | 0.14 | 92 | 1008.4 |
| 20260904031109 | 75 | 7 | 0.0 | 0.0 | 0.00 | 0.00 | 0.14 | 92 | 1008.5 |
| 20260904030503 | 75 | 7 | 0.0 | 0.0 | 0.00 | 0.00 | 0.14 | 91 | 1008.5 |
| 20260904030006 | 75 | 7 | 0.0 | 0.0 | 0.00 | 0.00 | 0.14 | 91 | 1008.5 |
| 20260904025600 | 75 | 7 | 0.0 | 0.0 | 0.00 | 0.00 | 0.14 | 91 | 1008.5 |
| 20260904025103 | 75 | 7 | 0.0 | 0.0 | 0.00 | 0.00 | 0.14 | 91 | 1008.5 |
| 20260904024609 | 75 | 7 | 0.0 | 0.0 | 0.00 | 0.00 | 0.14 | 91 | 1008.5 |
| 20260904024003 | 75 | 7 | 0.0 | 0.0 | 0.00 | 0.00 | 0.14 | 90 | 1008.6 |
| 20260904023556 | 75 | 7 | 0.0 | 0.0 | 0.00 | 0.00 | 0.14 | 90 | 1008.6 |
| 20260904023100 | 75 | 7 | 0.0 | 0.0 | 0.00 | 0.00 | 0.14 | 90 | 1008.6 |
| 20260904022604 | 76 | 7 | 0.0 | 0.0 | 0.00 | 0.00 | 0.14 | 89 | 1008.3 |
| 20260904022106 | 76 | 7 | 0.0 | 0.0 | 0.00 | 0.00 | 0.14 | 89 | 1008.3 |
| 20260904021502 | 76 | 7 | 0.0 | 0.0 | 0.00 | 0.00 | 0.14 | 88 | 1008.3 |
| 20260904021054 | 76 | 7 | 0.0 | 0.0 | 0.00 | 0.00 | 0.14 | 88 | 1008.4 |
| 20260904020559 | 76 | 7 | 0.0 | 0.0 | 0.00 | 0.00 | 0.14 | 88 | 1008.4 |
| 20260904020100 | 76 | 7 | 0.0 | 0.0 | 0.00 | 0.00 | 0.14 | 87 | 1008.4 |
| 20260904015603 | 76 | 7 | 0.0 | 0.0 | 0.00 | 0.00 | 0.14 | 87 | 1008.4 |
| 20260904015003 | 76 | 7 | 0.0 | 0.0 | 0.00 | 0.00 | 0.14 | 86 | 1008.4 |
| 20260904014504 | 76 | 7 | 0.0 | 0.0 | 0.00 | 0.00 | 0.14 | 86 | 1008.4 |
| 20260904014007 | 77 | 7 | 0.0 | 0.0 | 0.00 | 0.00 | 0.14 | 86 | 1008.6 |
| 20260904013510 | 77 | 7 | 0.0 | 0.0 | 0.00 | 0.00 | 0.14 | 85 | 1008.6 |
| 20260904013104 | 77 | 7 | 0.0 | 0.0 | 0.00 | 0.00 | 0.14 | 84 | 1008.6 |
| 20260904012502 | 77 | 7 | 0.0 | 0.0 | 0.00 | 0.00 | 0.13 | 84 | 1008.9 |
| 20260904012005 | 77 | 7 | 0.0 | 0.0 | 0.00 | 0.00 | 0.13 | 84 | 1008.9 |
| 20260904011509 | 77 | 7 | 0.0 | 0.0 | 0.00 | 0.00 | 0.13 | 85 | 1008.9 |
| 20260904011100 | 77 | 7 | 0.0 | 0.0 | 0.00 | 0.00 | 0.13 | 85 | 1009.1 |
| 20260904010606 | 77 | 7 | 0.0 | 0.0 | 0.00 | 0.00 | 0.13 | 85 | 1009.1 |
| 20260904010005 | 77 | 7 | 0.0 | 0.0 | 0.00 | 0.00 | 0.13 | 86 | 1009.1 |
| 20260904005505 | 77 | 7 | 0.0 | 0.0 | 0.00 | 0.00 | 0.13 | 86 | 1008.9 |
| 20260904005008 | 77 | 7 | 0.0 | 0.0 | 0.00 | 0.00 | 0.13 | 87 | 1008.9 |
| 20260904004604 | 76 | 7 | 0.0 | 0.0 | 0.00 | 0.00 | 0.13 | 88 | 1008.9 |
| 20260904004106 | 76 | 7 | 0.0 | 0.0 | 0.00 | 0.00 | 0.13 | 88 | 1008.9 |
| 20260904003510 | 77 | 7 | 0.0 | 0.0 | 0.00 | 0.00 | 0.13 | 87 | 1008.9 |
| 20260904003104 | 77 | 7 | 0.0 | 0.0 | 0.00 | 0.00 | 0.13 | 87 | 1008.9 |
| 20260904002504 | 77 | 7 | 0.0 | 0.0 | 0.00 | 0.00 | 0.13 | 87 | 1008.8 |
| 20260904002011 | 77 | 7 | 0.0 | 0.0 | 0.00 | 0.00 | 0.13 | 87 | 1008.8 |
| 20260904001515 | 77 | 7 | 0.0 | 0.0 | 0.00 | 0.00 | 0.13 | 86 | 1008.8 |
| 20260904001104 | 77 | 7 | 0.0 | 0.0 | 0.00 | 0.00 | 0.13 | 86 | 1008.4 |
| 20260904000501 | 77 | 7 | 0.0 | 0.0 | 0.00 | 0.00 | 0.12 | 85 | 1008.4 |
| 20260904000009 | 77 | 7 | 0.0 | 0.0 | 0.00 | 0.00 | 0.12 | 84 | 1008.4 |
| 20260903235507 | 78 | 7 | 0.0 | 0.0 | 0.00 | 0.00 | 0.12 | 84 | 1008.4 |
| 20260903235103 | 78 | 7 | 0.0 | 0.0 | 0.00 | 0.00 | 0.12 | 84 | 1008.4 |
| 20260903234550 | 78 | 7 | 0.0 | 0.0 | 0.00 | 0.00 | 0.12 | 84 | 1008.4 |
| 20260903234101 | 78 | 7 | 0.0 | 0.0 | 0.00 | 0.00 | 0.12 | 84 | 1008.5 |
| 20260903233604 | 78 | 7 | 0.0 | 0.0 | 0.00 | 0.00 | 0.12 | 84 | 1008.5 |
| 20260903233002 | 78 | 7 | 0.0 | 0.0 | 0.00 | 0.00 | 0.12 | 83 | 1008.5 |
| 20260903232508 | 79 | 7 | 0.0 | 0.0 | 0.00 | 0.00 | 0.12 | 83 | 1008.3 |
| 20260903232059 | 79 | 7 | 0.0 | 0.0 | 0.00 | 0.00 | 0.12 | 83 | 1008.3 |
| 20260903231602 | 79 | 7 | 0.0 | 0.0 | 0.00 | 0.00 | 0.12 | 82 | 1008.3 |
| 20260903231108 | 79 | 7 | 0.0 | 0.0 | 0.00 | 0.00 | 0.12 | 81 | 1008.3 |
| 20260903230503 | 79 | 7 | 0.0 | 0.0 | 0.00 | 0.00 | 0.12 | 80 | 1008.3 |
| 20260903230100 | 80 | 7 | 0.0 | 0.0 | 0.00 | 0.00 | 0.12 | 80 | 1008.3 |
| 20260903225603 | 80 | 7 | 0.0 | 0.0 | 0.00 | 0.00 | 0.12 | 80 | 1008.1 |
| 20260903225105 | 80 | 7 | 0.0 | 0.0 | 0.00 | 0.00 | 0.12 | 79 | 1008.1 |
| 20260903224504 | 80 | 7 | 0.0 | 0.0 | 0.00 | 0.00 | 0.12 | 78 | 1008.1 |
| 20260903224057 | 81 | 7 | 0.0 | 0.0 | 0.00 | 0.00 | 0.12 | 78 | 1007.9 |
| 20260903223600 | 81 | 7 | 0.0 | 0.0 | 0.00 | 0.00 | 0.11 | 77 | 1007.9 |
| 20260903223116 | 81 | 7 | 0.0 | 0.0 | 0.00 | 0.00 | 0.11 | 77 | 1007.9 |
| 20260903222501 | 81 | 7 | 0.0 | 0.0 | 0.00 | 0.00 | 0.11 | 77 | 1008.0 |
| 20260903222055 | 81 | 7 | 0.0 | 0.0 | 0.00 | 0.00 | 0.11 | 77 | 1008.0 |
| 20260903221558 | 81 | 7 | 0.0 | 0.0 | 0.00 | 0.00 | 0.11 | 78 | 1008.0 |
| 20260903221101 | 81 | 7 | 0.0 | 0.0 | 0.00 | 0.00 | 0.11 | 78 | 1008.1 |
| 20260903220605 | 81 | 7 | 0.0 | 0.0 | 0.00 | 0.00 | 0.11 | 78 | 1008.1 |
| 20260903220122 | 81 | 7 | 0.0 | 0.0 | 0.00 | 0.00 | 0.11 | 78 | 1008.1 |
| 20260903215559 | 81 | 7 | 0.0 | 0.0 | 0.00 | 0.00 | 0.11 | 78 | 1007.9 |
| 20260903215103 | 81 | 7 | 0.0 | 0.0 | 0.00 | 0.00 | 0.11 | 77 | 1007.9 |
| 20260903214506 | 82 | 7 | 0.0 | 0.0 | 0.00 | 0.00 | 0.11 | 77 | 1007.9 |
| 20260903214058 | 82 | 7 | 0.0 | 0.0 | 0.00 | 0.00 | 0.11 | 77 | 1007.7 |
| 20260903213602 | 82 | 6 | 0.0 | 0.0 | 0.00 | 0.00 | 0.11 | 77 | 1007.7 |
| 20260903213108 | 82 | 6 | 0.0 | 0.0 | 0.00 | 0.00 | 0.11 | 77 | 1007.7 |
| 20260903212557 | 82 | 6 | 0.0 | 0.0 | 0.00 | 0.00 | 0.10 | 76 | 1007.7 |
| 20260903212100 | 82 | 6 | 0.0 | 0.0 | 0.00 | 0.00 | 0.10 | 76 | 1007.7 |
| 20260903211609 | 83 | 3 | 0.0 | 0.0 | 0.00 | 0.00 | 0.10 | 76 | 1007.7 |
| 20260903211006 | 83 | 3 | 0.0 | 0.0 | 0.00 | 0.00 | 0.10 | 75 | 1007.8 |
| 20260903210600 | 83 | 3 | 0.0 | 0.0 | 0.00 | 0.00 | 0.10 | 76 | 1007.8 |
| 20260903210112 | 83 | 3 | 0.0 | 0.0 | 0.00 | 0.00 | 0.10 | 75 | 1007.8 |
| 20260903205607 | 83 | 3 | 0.0 | 0.0 | 0.00 | 0.00 | 0.10 | 75 | 1007.9 |
| 20260903205003 | 83 | 3 | 0.0 | 0.0 | 0.00 | 0.00 | 0.10 | 74 | 1007.9 |
| 20260903204557 | 83 | 3 | 0.0 | 0.0 | 0.00 | 0.00 | 0.10 | 74 | 1007.9 |
| 20260903204100 | 83 | 3 | 0.0 | 0.0 | 0.00 | 0.00 | 0.10 | 74 | 1008.0 |
| 20260903203604 | 83 | 3 | 0.0 | 0.0 | 0.00 | 0.00 | 0.10 | 74 | 1008.0 |
| 20260903203005 | 83 | 3 | 0.0 | 0.0 | 0.00 | 0.00 | 0.10 | 74 | 1008.0 |
| 20260903202557 | 83 | 3 | 0.0 | 0.0 | 0.00 | 0.00 | 0.10 | 74 | 1008.2 |
| 20260903202101 | 83 | 3 | 0.0 | 0.0 | 0.00 | 0.00 | 0.10 | 73 | 1008.2 |
| 20260903201606 | 83 | 3 | 0.0 | 0.0 | 0.00 | 0.00 | 0.10 | 73 | 1008.2 |
| 20260903201000 | 83 | 3 | 0.0 | 0.0 | 0.00 | 0.00 | 0.10 | 73 | 1008.3 |
| 20260903200556 | 83 | 0 | 0.0 | 0.0 | 0.00 | 0.00 | 0.10 | 74 | 1008.3 |
| 20260903200104 | 83 | 0 | 0.0 | 0.0 | 0.00 | 0.00 | 0.09 | 75 | 1008.3 |
| 20260903195600 | 83 | 0 | 0.0 | 0.0 | 0.00 | 0.00 | 0.09 | 75 | 1008.3 |
| 20260903195103 | 83 | 0 | 0.0 | 0.0 | 0.00 | 0.00 | 0.09 | 74 | 1008.3 |
| 20260903194555 | 82 | 304 | 0.0 | 0.0 | 0.00 | 0.00 | 0.09 | 74 | 1008.3 |
| 20260903194053 | 82 | 304 | 0.0 | 0.0 | 0.00 | 0.00 | 0.09 | 73 | 1008.4 |
| 20260903193557 | 82 | 304 | 0.0 | 0.0 | 0.00 | 0.00 | 0.09 | 73 | 1008.4 |
| 20260903193100 | 82 | 304 | 0.0 | 0.0 | 0.00 | 0.00 | 0.09 | 73 | 1008.4 |
| 20260903192604 | 82 | 304 | 0.0 | 0.0 | 0.00 | 0.00 | 0.09 | 73 | 1008.7 |
| 20260903192050 | 82 | 304 | 0.0 | 0.0 | 0.00 | 0.00 | 0.09 | 73 | 1008.7 |
| 20260903191553 | 82 | 304 | 0.0 | 0.0 | 0.00 | 0.00 | 0.09 | 73 | 1008.7 |
| 20260903191100 | 82 | 304 | 0.0 | 0.0 | 0.00 | 0.00 | 0.09 | 73 | 1008.9 |
| 20260903190600 | 82 | 304 | 0.0 | 0.0 | 0.00 | 0.00 | 0.09 | 73 | 1008.9 |
| 20260903190048 | 82 | 304 | 0.0 | 0.0 | 0.00 | 0.00 | 0.09 | 73 | 1008.9 |
| 20260903185555 | 82 | 281 | 0.0 | 0.0 | 0.00 | 0.00 | 0.08 | 72 | 1009.1 |
| 20260903185058 | 82 | 281 | 0.0 | 0.0 | 0.00 | 0.00 | 0.08 | 72 | 1009.1 |
| 20260903184606 | 82 | 199 | 0.0 | 0.0 | 0.00 | 0.00 | 0.08 | 70 | 1009.1 |
| 20260903184052 | 82 | 318 | 0.0 | 0.0 | 0.00 | 0.00 | 0.08 | 71 | 1009.3 |
| 20260903183559 | 82 | 318 | 0.0 | 0.0 | 0.00 | 0.00 | 0.08 | 70 | 1009.3 |
| 20260903183103 | 82 | 318 | 0.0 | 0.0 | 0.00 | 0.00 | 0.08 | 72 | 1009.3 |
| 20260903182554 | 82 | 318 | 0.0 | 0.0 | 0.00 | 0.00 | 0.08 | 71 | 1009.3 |
| 20260903182059 | 82 | 318 | 0.0 | 0.0 | 0.00 | 0.00 | 0.08 | 70 | 1009.3 |
| 20260903181604 | 82 | 318 | 0.0 | 0.0 | 0.00 | 0.00 | 0.08 | 73 | 1009.3 |
| 20260903181001 | 81 | 316 | 0.0 | 0.0 | 0.00 | 0.00 | 0.08 | 73 | 1009.3 |
| 20260903180555 | 81 | 316 | 0.0 | 0.0 | 0.00 | 0.00 | 0.08 | 74 | 1009.3 |
| 20260903180059 | 81 | 316 | 0.0 | 0.0 | 0.00 | 0.00 | 0.08 | 74 | 1009.3 |
| 20260903175601 | 81 | 316 | 0.0 | 0.0 | 0.00 | 0.00 | 0.08 | 75 | 1009.6 |
| 20260903175104 | 81 | 316 | 0.0 | 0.0 | 0.00 | 0.00 | 0.08 | 75 | 1009.6 |
| 20260903174551 | 80 | 316 | 0.0 | 0.0 | 0.00 | 0.00 | 0.08 | 77 | 1009.6 |
| 20260903174100 | 80 | 323 | 0.0 | 0.0 | 0.00 | 0.00 | 0.07 | 77 | 1009.8 |
| 20260903173606 | 79 | 323 | 0.0 | 0.0 | 0.00 | 0.00 | 0.07 | 79 | 1009.8 |
| 20260903173003 | 79 | 306 | 0.0 | 0.0 | 0.00 | 0.00 | 0.07 | 78 | 1009.8 |
| 20260903172508 | 79 | 306 | 0.0 | 0.0 | 0.00 | 0.00 | 0.07 | 79 | 1010.0 |
| 20260903172010 | 79 | 306 | 0.0 | 0.0 | 0.00 | 0.00 | 0.07 | 79 | 1010.0 |
| 20260903171519 | 78 | 306 | 0.0 | 0.0 | 0.00 | 0.00 | 0.07 | 80 | 1010.0 |
| 20260903171105 | 79 | 306 | 0.0 | 0.0 | 0.00 | 0.00 | 0.07 | 82 | 1010.4 |
| 20260903170505 | 78 | 306 | 0.0 | 0.0 | 0.00 | 0.00 | 0.07 | 82 | 1010.4 |
| 20260903170025 | 78 | 306 | 0.0 | 0.0 | 0.00 | 0.00 | 0.07 | 84 | 1010.4 |
| 20260903165603 | 78 | 306 | 0.0 | 0.0 | 0.00 | 0.00 | 0.07 | 84 | 1010.7 |
| 20260903165104 | 77 | 306 | 0.0 | 0.0 | 0.00 | 0.00 | 0.07 | 85 | 1010.7 |
| 20260903164505 | 77 | 305 | 0.0 | 0.0 | 0.00 | 0.00 | 0.06 | 87 | 1010.7 |
| 20260903164058 | 77 | 301 | 0.0 | 0.0 | 0.00 | 0.00 | 0.06 | 89 | 1011.0 |
| 20260903163601 | 77 | 301 | 0.0 | 0.0 | 0.00 | 0.00 | 0.06 | 92 | 1011.0 |
| 20260903163105 | 76 | 301 | 0.0 | 0.0 | 0.00 | 0.00 | 0.06 | 93 | 1011.0 |
| 20260903162501 | 76 | 301 | 0.0 | 0.0 | 0.00 | 0.00 | 0.06 | 97 | 1011.1 |
| 20260903162005 | 76 | 301 | 0.0 | 0.0 | 0.00 | 0.00 | 0.06 | 98 | 1011.1 |
| 20260903161508 | 76 | 301 | 0.0 | 0.0 | 0.00 | 0.00 | 0.06 | 99 | 1011.1 |
| 20260903161100 | 76 | 301 | 0.0 | 0.0 | 0.00 | 0.00 | 0.06 | 100 | 1011.7 |
| 20260903160604 | 75 | 301 | 0.0 | 0.0 | 0.00 | 0.00 | 0.06 | 100 | 1011.7 |
| 20260903160003 | 75 | 301 | 0.0 | 0.0 | 0.00 | 0.00 | 0.06 | 100 | 1011.7 |
| 20260903155505 | 75 | 301 | 0.0 | 0.0 | 0.00 | 0.00 | 0.06 | 100 | 1012.0 |
| 20260903155059 | 74 | 301 | 0.0 | 0.0 | 0.00 | 0.00 | 0.06 | 100 | 1012.0 |
| 20260903154603 | 74 | 301 | 0.0 | 0.0 | 0.00 | 0.00 | 0.06 | 100 | 1012.0 |
| 20260903154109 | 74 | 301 | 0.0 | 0.0 | 0.00 | 0.00 | 0.06 | 100 | 1011.9 |
| 20260903153554 | 74 | 292 | 0.0 | 0.0 | 0.00 | 0.00 | 0.06 | 100 | 1011.9 |
| 20260903153042 | 74 | 292 | 0.0 | 0.0 | 0.00 | 0.00 | 0.06 | 100 | 1011.9 |
| 20260903152550 | 74 | 292 | 0.0 | 0.0 | 0.00 | 0.00 | 0.06 | 100 | 1011.7 |
| 20260903152053 | 74 | 292 | 0.0 | 0.0 | 0.00 | 0.00 | 0.06 | 100 | 1011.7 |
| 20260903151540 | 74 | 291 | 0.0 | 0.0 | 0.00 | 0.00 | 0.06 | 100 | 1011.7 |
| 20260903151043 | 74 | 291 | 0.0 | 0.0 | 0.00 | 0.00 | 0.06 | 100 | 1011.5 |
| 20260903150548 | 74 | 291 | 0.0 | 0.0 | 0.00 | 0.00 | 0.06 | 100 | 1011.5 |
| 20260903150104 | 74 | 291 | 0.0 | 0.0 | 0.00 | 0.00 | 0.05 | 100 | 1011.5 |
| 20260903145545 | 74 | 291 | 0.0 | 0.0 | 0.00 | 0.00 | 0.05 | 100 | 1011.0 |
| 20260903145055 | 74 | 291 | 0.0 | 0.0 | 0.00 | 0.00 | 0.05 | 100 | 1011.0 |
| 20260903144625 | 74 | 291 | 0.0 | 0.0 | 0.00 | 0.00 | 0.05 | 100 | 1011.0 |